AO-07 1 07530U 74089B 18060.53231341 -.00000054 00000-0 -56954-4 0 9994 2 07530 101.6731 029.5276 0012004 182.1875 291.1079 12.53631367980874 UO-11 1 14781U 84021B 18060.58421849 .00000052 00000-0 12631-4 0 9996 2 14781 097.6638 101.3073 0009974 078.7273 281.5062 14.82983595807496 LO-19 1 20442U 90005G 18060.81584140 -.00000003 00000-0 14830-4 0 9996 2 20442 98.6013 0.0228 0012865 105.5966 254.6639 14.32887862468515 HUBBLE 1 20580U 90037B 18060.58631538 .00000460 00000-0 17210-4 0 9993 2 20580 028.4696 106.3825 0002962 064.9313 068.4477 15.08987674329119 MET-2/21 1 22782U 93055A 18060.42881935 .00000064 00000-0 44424-4 0 9990 2 22782 082.5518 179.4431 0023412 071.0022 353.1676 13.83808907237005 AO-27 1 22825U 93061C 18060.53940115 -.00000020 00000-0 99792-5 0 9995 2 22825 98.8503 34.7761 0007531 305.3926 54.6552 14.30022885274188 IO-26 1 22826U 93061D 18060.51116931 -.00000014 00000-0 12413-4 0 9992 2 22826 098.8444 034.7985 0007944 293.8631 066.1718 14.30353909274112 FO-29 1 24278U 96046B 18060.56655397 -.00000015 00000-0 19496-4 0 9999 2 24278 098.5277 274.0871 0350865 030.2852 331.8064 13.53082078063437 NOAA-15 1 25338U 98030A 18060.54550335 .00000016 00000-0 25491-4 0 9998 2 25338 098.7759 076.8714 0010657 174.3158 185.8144 14.25840305029429 GO-32 1 25397U 98043D 18060.78105629 -.00000019 00000-0 10924-4 0 9994 2 25397 98.6400 3.0564 0001301 24.6629 335.4612 14.23640547 20447 ISS 1 25544U 98067A 18060.57835756 .00001767 00000-0 33881-4 0 9999 2 25544 051.6406 195.1666 0002959 141.4622 319.1766 15.54168370101783 NO-44 1 26931U 01043C 18060.61375315 -.00000032 00000-0 19618-4 0 9990 2 26931 067.0515 146.9826 0006122 282.5595 077.4821 14.30495358857090 SO-50 1 27607U 02058C 18060.44211797 -.00000004 00000-0 20151-4 0 9995 2 27607 064.5551 059.3644 0052476 353.9212 006.1246 14.75423539816939 CO-55 1 27844U 03031E 18060.80318509 .00000054 00000-0 44301-4 0 9996 2 27844 98.6892 71.0320 0009106 327.9241 32.1382 14.22097095760939 CO-57 1 27848U 03031J 18060.80307973 .00000036 00000-0 36466-4 0 9996 2 27848 98.6981 71.3928 0009181 338.6853 21.3941 14.21703269760803 RS-22 1 27939U 03042A 18060.80322826 .00000062 00000-0 19524-4 0 9998 2 27939 97.9718 202.8229 0014130 126.2433 343.5258 14.66660850771072 NOAA-18 1 28654U 05018A 18060.56832835 .00000006 00000-0 28665-4 0 9991 2 28654 099.1588 093.7610 0015207 071.7333 288.5491 14.12367931658498 CO-58 1 28895U 05043F 18060.39040304 .00000124 00000-0 32508-4 0 9991 2 28895 097.8920 216.3106 0017831 053.4094 306.8746 14.63513563657877 Falconsat-3 1 30776U 07006E 18060.57927272 .00002863 00000-0 86478-4 0 9998 2 30776 035.4348 231.5260 0002194 153.2207 206.8633 15.33989515607782 CO-65 1 32785U 08021C 18060.79776122 .00000188 00000-0 26077-4 0 9995 2 32785 97.5525 78.0764 0014024 40.0551 320.1697 14.88068631533204 AAUSAT2 1 32788U 08021F 18060.54600950 .00000475 00000-0 49344-4 0 9997 2 32788 097.5330 091.4796 0011546 356.9920 003.1229 14.94233281534000 DO-64 1 32789U 08021G 18060.20410524 .00000638 00000-0 48179-4 0 9993 2 32789 097.5264 117.6922 0011051 310.7738 049.2529 15.05781262535437 CO-66 1 32791U 08021J 18060.52368280 .00000316 00000-0 37770-4 0 9990 2 32791 097.5441 082.9188 0013918 023.5743 336.6110 14.90477401533396 RS-30 1 32953U 08025A 18060.51218422 .00000032 00000-0 15839-3 0 9991 2 32953 082.4990 079.6442 0020377 085.4282 274.9125 12.43082028443399 PRISM 1 33493U 09002B 18060.69402458 .00000030 00000-0 83153-5 0 9994 2 33493 98.1415 318.6036 0014845 317.8648 42.1430 14.96090571494270 NOAA-19 1 33591U 09005A 18060.59441672 .00000066 00000-0 61242-4 0 9999 2 33591 099.1302 036.5537 0012991 269.3736 090.5946 14.12257889466729 TISAT-1 1 36799U 10035E 18060.31993286 .00000467 00000-0 53625-4 0 9991 2 36799 098.0886 193.7966 0012115 196.8314 163.2503 14.90706168413884 JUGNU 1 37839U 11058B 18060.14320911 .00000331 00000-0 34677-4 0 9999 2 37839 19.9623 332.4077 0019046 135.8511 10.3700 14.12610695330071 SRMSAT 1 37841U 11058D 18060.14034550 .00000309 00000-0 24779-4 0 9990 2 37841 19.9736 19.3967 0011886 24.6429 78.2216 14.10599360329600 AO-71 1 37854U 11061E 18060.26978948 .00001460 00000-0 83993-4 0 9991 2 37854 101.7131 069.9437 0164642 033.4967 327.6528 15.05128107345146 HRBE 1 37855U 11061F 18060.65582476 .00001519 00000-0 85492-4 0 9993 2 37855 101.7257 68.1557 0177657 40.4385 320.9876 15.04101902345484 ALMASAT-1 1 38078U 12006B 18060.53513791 .00021627 39171-5 20043-3 0 9990 2 38078 069.4372 153.3081 0265385 268.3492 203.6186 15.34875021324105 HORYU-2 1 38340U 12025D 18060.52339122 .00000177 00000-0 34098-4 0 9993 2 38340 098.3736 078.5084 0011437 187.4590 172.6450 14.75505092300824 RS-40 1 38735U 12041C 18060.62365572 .00000002 00000-0 -54219-4 0 9993 2 38735 082.4791 163.6855 0017321 184.9927 175.0982 12.42576749253646 BEESAT-3 1 39134U 13015E 18060.62334086 .00001099 00000-0 61871-4 0 9993 2 39134 64.8627 114.7781 0022818 225.3300 134.5968 15.18847893268567 BEESAT-2 1 39136U 13015G 18060.79889933 .00000791 00000-0 51013-4 0 9994 2 39136 64.8698 128.6910 0029373 247.1870 112.6152 15.15905942268314 ZACUBE-1 1 39417U 13066B 18060.67981834 .00000203 00000-0 31966-4 0 9995 2 39417 97.5997 94.9925 0060090 146.1687 214.3383 14.80881987230887 TRITON-1 1 39427U 13066M 18060.51121048 .00000114 00000-0 26530-4 0 9994 2 39427 097.6385 063.5974 0112825 244.0513 114.9033 14.67616177228590 GOMX-1 1 39430U 13066Q 18060.49789819 .00000178 00000-0 41763-4 0 9996 2 39430 097.6873 045.1957 0150578 310.9106 047.9134 14.59031141227264 LO-74 1 39440U 13066AA 18060.52892157 .00000168 00000-0 30428-4 0 9996 2 39440 097.6086 082.1249 0080542 184.1167 175.9390 14.75617982228849 AO-73 1 39444U 13066AE 18060.52915603 .00000233 00000-0 35134-4 0 9994 2 39444 097.6010 096.2379 0059326 142.5222 218.0151 14.81647824229127 SPROUT 1 39770U 14029E 18060.84514756 .00000662 00000-0 80601-4 0 9990 2 39770 97.8724 162.8356 0008843 191.6984 168.4040 14.86687029204412 DUCHIFAT-1 1 40021U 14033M 18060.29327575 .00000315 00000-0 38395-4 0 9994 2 40021 097.9177 338.8189 0013085 167.8132 192.3404 14.90209277200886 NANOSATCBR1 1 40024U 14033Q 18060.48297062 .00000249 00000-0 32044-4 0 9996 2 40024 097.9120 337.4592 0012402 168.8798 191.2696 14.89486561200322 EO-79 1 40025U 14033R 18060.60395079 .00000213 00000-0 28861-4 0 9991 2 40025 097.9086 336.2104 0012545 172.5044 187.6362 14.88644293200274 DTUSAT-2 1 40030U 14033W 18060.74249155 .00000214 00000-0 29193-4 0 9995 2 40030 97.9039 335.1780 0012131 166.6841 193.4698 14.88257584200759 EO-80 1 40032U 14033Y 18060.52691179 .00000219 00000-0 29791-4 0 9999 2 40032 097.9046 334.9670 0012053 167.9151 192.2357 14.88193128200195 ANTELSAT 1 40034U 14033AA 18060.60110806 .00000188 00000-0 35583-4 0 9994 2 40034 097.8272 301.0714 0058703 183.2507 176.8328 14.73868410198301 VELOX-1 1 40057U 14034E 18060.75750889 .00000282 00000-0 47264-4 0 9991 2 40057 98.1930 170.0214 0009946 317.8338 42.2105 14.77352527197783 DAURIA DX 1 1 40071U 14037C 18060.80255981 .00000119 00000-0 22758-4 0 9999 2 40071 98.3578 187.4856 0007375 313.2902 46.7696 14.81126453197106 UKUBE-1 1 40074U 14037F 18060.45524809 .00000227 00000-0 34557-4 0 9991 2 40074 098.3688 192.3833 0003652 315.9596 044.1327 14.83726261197325 HODOYOSHI-1 1 40299U 14070B 18060.76079663 .00000607 00000-0 28982-4 0 9991 2 40299 97.3834 144.4178 0011183 268.6425 190.2425 15.22747531184133 CHUBUSAT-1 1 40300U 14070C 18060.77068649 .00000627 00000-0 30930-4 0 9995 2 40300 97.3724 140.7323 0018634 281.3317 233.6076 15.21403894183947 QSAT-EOS 1 40301U 14070D 18060.82063980 .00001539 00000-0 65298-4 0 9993 2 40301 97.3660 141.6573 0025071 271.7227 228.3985 15.24371544184063 FIREBIRD FU3 1 40377U 15003B 18060.60688467 .00001636 00000-0 71482-4 0 9992 2 40377 099.1007 300.9886 0131618 228.0841 130.9105 15.16766223170004 FIREBIRD FU4 1 40378U 15003C 18060.72839174 .00001623 00000-0 70898-4 0 9995 2 40378 99.1010 301.1868 0131830 227.5678 131.4341 15.16777671170030 GRIFEX 1 40379U 15003D 18060.36357476 .00001238 00000-0 58814-4 0 9992 2 40379 99.1046 297.4050 0138394 239.9083 118.8363 15.14000935169782 NO-84 1 40654U 15025D 18060.53917106 .00013556 00000-0 22602-3 0 02335 2 40654 054.9952 161.9330 0163327 194.7408 164.8794 15.38792170039265 NO-83 1 40655U 15025E 18060.34549627 .00020324 00000-0 24245-3 0 02688 2 40655 054.9781 117.4561 0116951 220.9583 138.2708 15.53159920039509 DEORBITSAIL 1 40719U 15032E 18060.49199469 .00000356 00000-0 58494-4 0 9996 2 40719 097.9572 315.6924 0017475 038.3778 321.8672 14.76342201142288 NUDT-PHONESAT 1 40900U 15049B 18060.55065828 .00001872 00000-0 87776-4 0 9993 2 40900 097.4428 070.0699 0014921 051.1378 309.1187 15.20839341135556 XW-2A 1 40903U 15049E 18060.65927038 .00001654 00000-0 43386-4 0 9994 2 40903 97.3973 94.3961 0015906 61.8761 298.4090 15.40053376137252 XW-2C 1 40906U 15049H 18060.79975362 .00000581 00000-0 34500-4 0 9991 2 40906 97.4597 66.2735 0016299 46.6907 313.5681 15.15034189135238 XW-2D 1 40907U 15049J 18060.76250797 .00000611 00000-0 35972-4 0 9995 2 40907 97.4569 65.9478 0015626 45.0885 315.1612 15.15173732135239 LILACSAT-2 1 40908U 15049K 18060.57562471 .00000309 00000-0 20910-4 0 9990 2 40908 097.4679 065.2591 0017252 045.8747 314.3900 15.13417799135090 XW-2F 1 40910U 15049M 18060.72698448 .00000946 00000-0 52187-4 0 9992 2 40910 97.4577 67.0347 0016276 41.6214 318.6254 15.16289047135171 XW-2B 1 40911U 15049N 18060.77618467 .00000599 00000-0 35398-4 0 9990 2 40911 97.4607 66.4570 0015531 45.5758 314.6742 15.15122071135132 DCBB 1 40912U 15049P 18060.55519748 .00001207 00000-0 61665-4 0 9992 2 40912 097.4513 069.4176 0016591 031.0530 067.3783 15.18478351135336 TW-1C 1 40926U 15051B 18060.78206547 .00007235 00000-0 14367-3 0 9998 2 40926 97.1984 103.6777 0009322 319.6687 132.2626 15.47247130136699 TW-1A 1 40928U 15051D 18060.49442469 .00003001 00000-0 82133-4 0 9997 2 40928 097.1990 096.5795 0012340 359.9439 105.9594 15.38046696136228 IO-86 1 40931U 15052B 18059.91903565 .00000676 00000-0 49304-5 0 9995 2 40931 5.9990 202.1047 0014338 277.2925 82.5994 14.76566087130977 LQSat 1 40958U 15057A 18060.70258848 .00000021 00000-0 11050-4 0 9995 2 40958 97.9496 136.1585 0017447 325.7338 34.2744 14.73018064129027 AO-85 1 40967U 15058D 18059.56604280 -.00000019 00000-0 16880-4 0 02541 2 40967 064.7757 160.9914 0195612 347.9788 011.6670 14.75643987037627 ATHENOXAT-1 1 41168U 15077C 18060.39882743 .00002176 00000-0 83332-4 0 9998 2 41168 014.9844 089.0408 0011688 344.6478 038.9167 15.12492496122036 ChubuSat-2 1 41338U 16012B 18060.77473257 .00000344 00000-0 20219-4 0 9995 2 41338 31.0029 276.0642 0013677 89.7061 270.5142 14.99927008111696 ChubuSat-3 1 41339U 16012C 18060.80203514 .00000329 00000-0 18929-4 0 9995 2 41339 31.0118 274.6464 0013331 97.3532 262.8618 15.00118403111682 Horyu-4 1 41340U 16012D 18060.78553734 .00000492 00000-0 31034-4 0 9999 2 41340 31.0047 270.3354 0013889 108.4011 251.8136 15.00896860111740 OUFTI-1 1 41458U 16025C 18060.69378807 .00002608 00000-0 13943-3 0 9998 2 41458 98.1520 117.7508 0171416 147.8583 213.3190 15.04302496101278 e-st@r-II 1 41459U 16025D 18060.41629217 .00001612 00000-0 88029-4 0 9995 2 41459 098.1532 117.3406 0173145 149.2268 211.9240 15.04061390101222 AAUSAT4 1 41460U 16025E 18060.82505208 .00003068 00000-0 16240-3 0 9997 2 41460 98.1462 118.1126 0164204 144.6631 216.5567 15.05356218101335 LO-87 1 41557U 16033B 18060.65006776 .00001242 00000-0 48069-4 0 9997 2 41557 97.4419 145.0539 0014174 171.3782 188.7704 15.28032154 97733 NuSat2 1 41558U 16033C 18060.31856087 .00001244 00000-0 48389-4 0 9996 2 41558 97.4448 144.8047 0013617 171.1659 188.9822 15.27863288 97674 Lapan A3 1 41603U 16040E 18060.87496880 .00000088 00000-0 73523-5 0 9991 2 41603 97.4260 124.2681 0011876 255.3561 225.4487 15.19516054 93784 Swayam 1 41607U 16040J 18060.36962906 .00001253 00000-0 58095-4 0 9997 2 41607 097.4268 124.8080 0012339 254.3502 105.6373 15.21869635093708 Pratham 1 41783U 16059A 18060.41137524 .00000041 00000-0 17376-4 0 9999 2 41783 098.1319 123.6387 0034851 074.8692 285.6360 14.62902999076209 AlSat 1N 1 41789U 16059G 18060.73255277 .00000047 00000-0 18018-4 0 9996 2 41789 98.1322 124.9615 0029657 66.6214 293.8096 14.64130007 76295 ScatSat 1 41790U 16059H 18060.72766335 .00000017 00000-0 15465-4 0 9999 2 41790 98.2753 110.3844 0019470 63.2151 297.1033 14.50862135 75605 TY-1 1 41844U 16066D 18060.85950498 .00001360 00000-0 60805-4 0 9996 2 41844 97.4063 69.2688 0017509 56.5295 63.7371 15.22912748 72541 Pegasus-1 1 41846U 16066F 18060.49444982 .00000171 00000-0 37059-4 0 9998 2 41846 098.7652 086.6901 0368189 206.3611 151.8425 14.37265381068433 CAS-2T 1 41847U 16066G 18060.53060876 .00000072 00000-0 21864-4 0 9997 2 41847 098.7593 087.1138 0366080 204.1609 154.2025 14.37863757068857 STARS-C 1 41895U 98067KR 18061.09832775 .06837022 12299-4 10231-2 0 9998 2 41895 51.6239 145.1030 0005904 339.6791 20.4566 16.33514652 68660 TO-89 1 41932U 98067KU 18060.49727912 .00020180 00000-0 16932-3 0 9990 2 41932 051.6375 173.0867 0003220 147.9232 212.1962 15.69913374063814 AOBA-V3LOX3 1 41935U 98067KX 18060.70956942 .00027671 00000-0 21208-3 0 9998 2 41935 51.6364 169.9725 0002261 150.9721 209.1403 15.71881237 63971 OSNSAT 1 41939U 98067KZ 18011.28402027 .11925055 12489-4 54124-3 0 9997 2 41939 051.6147 038.9582 0001091 231.1728 128.9202 16.43639489055773 EO-88 1 42017U 17008BX 18060.56580263 .00001316 00000-0 57160-4 0 9994 2 42017 097.4614 126.2165 0007567 049.1485 311.0407 15.24076129057674 HAVELSAT 1 42700U 98067LH 18060.72129023 .00019496 00000-0 19413-3 0 9994 2 42700 51.6371 182.0718 0003978 210.6346 149.4418 15.65701330 45151 SOMP2 1 42701U 98067LJ 18060.72075718 .00018009 00000-0 18423-3 0 9995 2 42701 51.6369 182.8176 0004025 209.8033 150.2733 15.65082001 45137 Columbia 1 42702U 98067LK 18060.75343330 .00897647 45208-3 10389-2 0 9994 2 42702 51.6221 162.4695 0009556 347.8305 12.2476 16.08217884 45334 PHOENIX 1 42706U 98067LP 18060.71276253 .00015734 00000-0 16342-3 0 9996 2 42706 51.6370 182.7675 0000680 147.3544 212.7493 15.64816256 45057 X-CubeSat 1 42707U 98067LQ 18060.72681864 .00021524 00000-0 21236-3 0 9998 2 42707 51.6348 182.0778 0000442 151.7479 208.3541 15.65865126 45058 qbee 1 42708U 98067LR 18060.75641264 .00020139 00000-0 20257-3 0 9995 2 42708 51.6370 182.2939 0000577 153.8468 206.2556 15.65426089 45015 ZA-AeroSat 1 42713U 98067LU 18060.72263322 .00015986 00000-0 17327-3 0 9991 2 42713 51.6361 184.3263 0001826 121.8496 238.2677 15.63712522 44698 LINK 1 42714U 98067LV 18060.73635957 .00034648 00000-0 29429-3 0 9992 2 42714 51.6333 179.8637 0000922 110.0977 250.0119 15.69286182 44868 UPSat 1 42716U 98067LX 18060.53472506 .00027792 00000-0 25206-3 0 9992 2 42716 051.6360 181.5602 0002488 222.2481 137.8324 15.67797393044844 SpaceCube 1 42717U 98067LY 18060.71512226 .00019523 00000-0 19726-3 0 9990 2 42717 51.6360 182.7695 0002667 214.0628 146.0197 15.65335304 44085 Hoopoe 1 42718U 98067LZ 18060.81410685 .00025378 00000-0 24185-3 0 9998 2 42718 51.6366 181.1829 0002460 217.2110 142.8716 15.66624027 44115 Challenger 1 42721U 98067MA 18060.72159470 .00039619 00000-0 30496-3 0 9999 2 42721 51.6347 178.2637 0003521 203.1961 156.8879 15.71585876 43847 NJUST-1 1 42722U 98067MB 18060.79141920 .00015058 00000-0 16777-3 0 9995 2 42722 51.6371 184.7917 0005502 188.4652 171.6250 15.63049195 43760 UNSW-EC0 1 42723U 98067MC 18060.71718091 .00024511 00000-0 23194-3 0 9992 2 42723 51.6380 182.0505 0004481 191.6958 168.3934 15.66816302 43773 DUTHsat 1 42724U 98067MD 18060.71928548 .00039456 00000-0 31470-3 0 9993 2 42724 51.6350 179.0217 0003063 205.4795 154.6052 15.70738974 43733 LO-90 1 42725U 98067ME 18060.70856701 .00018872 00000-0 19801-3 0 9997 2 42725 51.6372 184.2395 0004329 191.7843 168.3052 15.64400293 43667 nSIGHT1 1 42726U 98067MF 18060.73919277 .00007315 00000-0 96012-4 0 9999 2 42726 51.6387 188.2188 0005409 188.8857 171.2041 15.59692161 43628 QBITO 1 42728U 98067MH 18060.74795043 .00021053 00000-0 21224-3 0 9992 2 42728 51.6389 183.0338 0002059 202.2698 157.8208 15.65337741 43491 Aalto-2 1 42729U 98067MJ 18060.74086919 .00021146 00000-0 21196-3 0 9999 2 42729 51.6370 182.9565 0002017 202.0576 158.0333 15.65478951 43502 SUSat 1 42730U 98067MK 18060.72430831 .00017431 00000-0 18050-3 0 9992 2 42730 51.6366 183.5867 0002183 196.1030 163.9896 15.64804531 43485 i-INSPIRE II 1 42731U 98067ML 18060.55441935 .00027687 00000-0 25652-3 0 9991 2 42731 051.6357 182.4204 0004713 135.1613 224.9765 15.67264542043534 PolyITAN-2-SAU 1 42732U 98067MM 18060.72021102 .00021039 00000-0 20902-3 0 9999 2 42732 51.6365 182.7933 0005103 133.8572 226.2846 15.65697209 43543 SNUSAT-1 1 42733U 98067MN 18060.72582542 .00019004 00000-0 19601-3 0 9993 2 42733 51.6367 183.5881 0005336 137.4245 222.7164 15.64825216 43535 ExAlta-1 1 42734U 98067MP 18060.75047020 .00029007 00000-0 26762-3 0 9994 2 42734 51.6346 181.4753 0005580 165.5736 194.5421 15.67336885 43518 Aoxiang-1 1 42735U 98067MQ 18060.77403338 .00015611 00000-0 17240-3 0 9992 2 42735 51.6365 184.6621 0005973 185.2120 174.8813 15.63241774 44897 BeEagleSat 1 42736U 98067MR 18060.71742506 .00016541 00000-0 17631-3 0 9997 2 42736 51.6364 184.2812 0005609 184.8274 175.2667 15.64100538 43586 Atlantis 1 42737U 98067MS 18060.75081128 .00199789 00000-0 66083-3 0 9999 2 42737 51.6247 168.5295 0003547 322.9344 37.1416 15.89291651 43682 CAS-4B 1 42759U 17034B 18060.85686318 .00000127 00000-0 21405-4 0 9998 2 42759 43.0202 312.4514 0007711 160.9895 290.7167 15.09202745 39238 CAS-4A 1 42761U 17034D 18060.84336068 .00000197 00000-0 25737-4 0 9993 2 42761 43.0197 312.3628 0008065 162.1125 286.1835 15.09279115 39227 UCLSat 1 42765U 17036A 18060.36608707 .00001107 00000-0 52128-4 0 9994 2 42765 097.4154 121.8919 0013633 094.6394 265.6399 15.21545178038312 NIUSat 1 42766U 17036B 18060.58419870 .00000870 00000-0 43236-4 0 9996 2 42766 097.4156 121.6120 0017750 081.9075 278.4173 15.20145317038183 LituanicaSAT 2 1 42768U 17036D 18060.71213500 .00001769 00000-0 82865-4 0 9994 2 42768 97.4164 121.9049 0017612 84.2937 276.0306 15.20891838 38220 Aalto 1 1 42775U 17036L 18060.70756715 .00000729 00000-0 36387-4 0 9994 2 42775 97.4150 121.8948 0015966 82.1560 278.1487 15.20540777 38168 URSA MAIOR 1 42776U 17036M 18060.23853453 .00000756 00000-0 37525-4 0 9995 2 42776 097.4156 121.4640 0015832 083.9224 276.3814 15.20605789038099 Max Valier Sat 1 42778U 17036P 18060.56426486 .00000828 00000-0 40306-4 0 9996 2 42778 097.4177 122.0008 0014422 088.1058 272.1829 15.21060850038146 Pegasus 1 42784U 17036V 18060.58792290 .00001038 00000-0 49307-4 0 9998 2 42784 097.4156 122.0618 0014153 093.9191 266.3664 15.21374387038156 NUDATSat 1 42787U 17036Y 18060.21368129 .00001515 00000-0 69612-4 0 9992 2 42787 097.4160 121.8025 0013743 095.3207 264.9597 15.21822125037944 SUCHAI 1 1 42788U 17036Z 18060.29938772 .00001193 00000-0 55834-4 0 9991 2 42788 097.4158 121.8347 0013783 094.9495 265.3314 15.21593205038180 SKCUBE 1 42789U 17036AA 18060.55998972 .00001139 00000-0 53475-4 0 9998 2 42789 097.4155 122.0933 0013630 094.0822 266.1972 15.21579046038140 VZLUSAT 1 1 42790U 17036AB 18060.40204303 .00001464 00000-0 67340-4 0 9999 2 42790 097.4158 121.9964 0013288 094.9274 265.3480 15.21852158038127 VENTA 1 1 42791U 17036AC 18060.41421337 .00001141 00000-0 53456-4 0 9994 2 42791 097.4155 121.9807 0013239 095.1203 265.1544 15.21646927038115 Robusta 1B 1 42792U 17036AD 18060.34120851 .00001159 00000-0 54145-4 0 9999 2 42792 97.4154 121.9195 0013194 95.7388 264.5353 15.21715835 38122 D-SAT 1 42794U 17036AF 18060.58717469 .00000190 00000-0 22471-4 0 9995 2 42794 097.6069 119.2287 0125722 280.3389 078.3678 14.90789300037692 BIRD-J 1 42820U 98067MU 18060.53626920 .00017189 00000-0 18913-3 0 9995 2 42820 051.6362 186.8235 0002546 112.1948 247.9316 15.63263049037019 BIRD-G 1 42821U 98067MV 18060.75184009 .00016397 00000-0 18282-3 0 9996 2 42821 51.6363 186.0130 0002546 116.8740 243.2515 15.62962934 37005 BIRD-M 1 42822U 98067MW 18060.55404441 .00015950 00000-0 17720-3 0 9990 2 42822 051.6364 186.9454 0002496 117.6220 242.5028 15.63078971036999 BIRD-B 1 42823U 98067MX 18060.74662609 .00017208 00000-0 19026-3 0 9993 2 42823 51.6370 185.9924 0005002 143.6042 216.5294 15.63130496 37005 BIRD-N 1 42824U 98067MY 18060.50398429 .00015681 00000-0 17487-3 0 9996 2 42824 051.6374 187.3805 0004974 143.8910 216.2421 15.62990492036981 TechnoSat 1 42829U 17042E 18060.77115637 .00000115 00000-0 17149-4 0 9994 2 42829 97.6055 327.1182 0013857 190.9646 169.1273 14.90773611 34333 Mayak 1 42830U 17042F 18060.80757996 .00000728 00000-0 78766-4 0 9992 2 42830 97.6065 327.2423 0013898 188.4613 171.6374 14.91133063 34338 OBJECT MZ 1 42910U 98067MZ 18060.56732375 .00013455 00000-0 16297-3 0 9995 2 42910 051.6359 189.2683 0006131 165.6079 194.5090 15.60981172030550 OBJECT NA 1 42911U 98067NA 18060.53886430 .00013862 00000-0 16438-3 0 9994 2 42911 051.6368 189.1068 0005625 161.0419 199.0785 15.61508155030538 OBJECT NB 1 42912U 98067NB 18060.57278616 .00014364 00000-0 17265-3 0 9997 2 42912 051.6370 189.2981 0005076 174.2086 185.8967 15.61121277030556 OBJECT NC 1 42913U 98067NC 18060.58807499 .00026286 00000-0 26656-3 0 9996 2 42913 051.6356 186.4046 0003427 190.3125 169.7801 15.65040179030590 OBJECT ND 1 42914U 98067ND 18060.59754058 .00013052 00000-0 15971-3 0 9995 2 42914 051.6371 189.4961 0005107 167.1709 192.9416 15.60748710030528 QIKCOM-1 1 42983U 98067NF 18060.71121601 .00003754 00000-0 61016-4 0 9997 2 42983 51.6423 193.7286 0005000 151.0563 347.9238 15.55454488 19488 AO-91 1 43017U 17073E 18060.36583292 .00000476 00000-0 43709-4 0 9990 2 43017 97.7012 356.0473 0258813 262.5737 94.6001 14.77924301 15183 EcAMSat 1 43019U 98067NG 18060.74072767 .00004860 00000-0 75773-4 0 9993 2 43019 51.6394 193.4710 0005372 130.5530 229.5930 15.55870359101815 PICSAT 1 43132U 18004X 18060.58529980 .00001167 00000-0 53685-4 0 9993 2 43132 097.5479 122.9196 0011664 112.5686 247.6785 15.22323443007345 AO-92 1 43137U 18004AC 18060.38355608 .00000893 00000-0 41656-4 0 9990 2 43137 097.5478 122.7267 0011139 114.4826 245.7573 15.22454283007318 TianYi 2 1 43155U 18008A 18060.78671564 .00000430 00000-0 30030-4 0 9991 2 43155 97.5327 137.0488 0018659 149.6183 2.2619 15.10361121 6271 2018-008C 1 43157U 18008C 18060.80741118 .00000812 00000-0 54433-4 0 9996 2 43157 97.5387 137.0545 0016782 140.4244 359.5470 15.09531908 6278 2018-008D 1 43158U 18008D 18060.25809862 .00000850 00000-0 56816-4 0 9996 2 43158 97.5337 136.4801 0014971 144.5968 252.7304 15.09538040 6171 FMN 1 1 43192U 18015A 18060.58470099 .00002256 00000-0 10052-3 0 9997 2 43192 097.3390 191.8430 0017712 156.4187 203.7864 15.22318003004142 Shaonian Xing 1 43199U 18015H 18060.63241530 .00001707 00000-0 74606-4 0 9992 2 43199 097.3162 191.8528 0017366 170.4413 189.7160 15.23309086004163 /EX